Location: Famechon
(49.7599°N, 2.0615°E)
Time: 23:23:49
(UTC+00:00)

CZ-4 R/B - Pass Details

Date: 03 February 2023
Orbit: 525 x 587 km, 97.7° (Epoch: 21 March)

Event Time Altitude Azimuth Distance (km) Brightness Sun altitude
Rises 18:02:42 0° 139° (SE) 2,801 4.6 -12.0°
Reaches altitude 10° 18:05:02 10° 129° (SE) 1,898 3.7 -12.4°
Maximum altitude 18:08:40 31° 67° (ENE) 1,026 2.1 -13.0°
Drops below altitude 10° 18:12:16 10° 5° (N) 1,882 3.9 -13.5°
Sets 18:14:34 0° 355° (N) 2,773 4.9 -13.9°
